Location: Aalen
(48.8330°N, 10.1000°E)
Time: 13:24:23
(UTC+02:00)

METEOR M2 - Visible Passes

Search period start: 28 March 2023 00:00
Search period end: 07 April 2023 00:00
Orbit: 819 x 826 km, 98.4° (Epoch: 26 March)

Date Brightness Start Highest point End Pass type
(mag) Time Alt. Az. Time Alt. Az. Time Alt. Az.
29 Mar ? 20:27:40 10° WSW 20:30:23 14° W 20:33:07 10° NW visible
01 Apr ? 06:19:23 10° NE 06:22:11 14° E 06:24:59 10° ESE visible
03 Apr ? 20:28:00 10° WSW 20:30:38 14° W 20:33:17 10° NW visible
